Regional Weather Roundup
Issued by NWS State College, PA

Home | Current Version | Previous Version | Text Only | Print | Product List | Glossary Off
Versions: 1 2 3 4 5 6 7 8 9 10 11 12 13 14 15 16 17 18 19 20 21 22 23 24 25 26 27 28 29 30 31 32 33 34 35 36 37 38 39 40 41 42 43 44 45 46 47 48 49 50

000
ASUS41 KCTP 230110
RWRCTP

REGIONAL WEATHER ROUNDUP
NATIONAL WEATHER SERVICE STATE COLLEGE PA
900 PM EDT TUE JUL 22 2014

Note: "fair" indicates few or no clouds below 12,000 feet with no
significant weather and/or obstructions to visibility.

* = STATION THAT DOES NOT REPORT PRECIPITATION /E.G. RAIN...SNOW...ETC/
    THUNDER OR FOG.

PAZ002>004-007>009-013>016-020>023-029>032-230200-
WESTERN PENNSYLVANIA

CITY           SKY/WX    TMP DP  RH WIND       PRES   REMARKS
ERIE           CLEAR     79  65  62 S3        29.99F
MEADVILLE      NOT AVBL
FRANKLIN*      CLEAR     75  66  73 SW5       30.07F
NEW CASTLE       N/A     79  70  74 CALM      30.05S
BEAVER COUNTY  CLEAR     81  68  65 SW3       30.06S
BUTLER*        CLEAR     77  68  73 CALM      30.07F
PITTSBURGH INT PTCLDY    82  69  64 SW3       30.06S
PITTSBURGH     CLEAR     82  66  58 S5        30.06S
INDIANA*       CLEAR     79  70  73 S3        30.11F
LATROBE        PTCLDY    81  72  74 CALM      30.08R
WASHINGTON CO* CLEAR     73  70  88 CALM      30.07F
$$

PAZ004>006-010>012-017>019-024>028-033>037-041-042-045-046-049>053-230200-
CENTRAL PENNSYLVANIA

CITY           SKY/WX    TMP DP  RH WIND       PRES   REMARKS
BRADFORD       CLEAR     75  65  70 CALM      30.10F
DUBOIS         CLEAR     78  68  71 S3        30.08F
CLEARFIELD     PTCLDY    77  69  76 S5        30.09F
JOHNSTOWN      CLEAR     73  69  87 S5        30.14R
ALTOONA        CLOUDY    78  70  76 W3        30.10F
STATE COLLEGE  PTCLDY    77  70  78 S5        30.09R
WILLIAMSPORT   CLEAR     81  68  64 VRB3      30.03S
SELINSGROVE    CLEAR     79  69  71 S5        30.05F
FT INDIANTOWN  PTCLDY    80  72  75 S6        30.08S
CAPITAL CITY   CLEAR     79  70  74 S6        30.07S
HARRISBURG     PTCLDY    81  70  69 S6        30.06S
YORK           CLEAR     78  69  73 CALM      30.08S
$$

PAZ038>040-043-044-047-048-054-055-060>062-067>071-230200-
EASTERN PENNSYLVANIA

CITY           SKY/WX    TMP DP  RH WIND       PRES   REMARKS
SCRANTON       PTCLDY    79  68  69 S5        30.07S
MOUNT POCONO   CLEAR     73  67  81 SW7       30.13F
ALLENTOWN      CLEAR     81  68  64 SW8       30.07S
QUAKERTOWN*    CLEAR     77  68  73 S6        30.09F
READING        CLEAR     79  67  66 S6        30.07S
LANCASTER      CLEAR     77  66  68 S5        30.08F
COATESVILLE    CLEAR     75  68  78 CALM      30.11F
POTTSTOWN      CLEAR     78  66  66 S6        30.10S
BLUE BELL      CLEAR     79  64  61 S7        30.08F
DOYLESTOWN     CLEAR     78  66  66 VRB7      30.08F
WILLOW GROVE   NOT AVBL
NORTH PHILA    CLEAR     81  62  52 SW8       30.10S
PHILADELPHIA   PTCLDY    79  60  52 S9        30.09F
$$


USA.gov is the U.S. government's official web portal to all federal, state and local government web resources and services.